Wind_Speed
26 23 20 18 18 16 14 12 10 10 10 10 9 8 8 7 6 6 5 4 4 5 8 10 11 13 15 16 18 19 20 21 20 20 20 20 19 19 19 18 17 16 15 14
23 21 19 19 17 15 13 12 10 10 10 10 9 8 8 7 6 5 4 4 4 5 7 9 11 13 15 16 17 19 20 21 22 21 21 20 20 20 19 18 17 16 15 14
20 18 19 17 16 15 13 12 11 10 11 10 9 8 8 7 6 5 4 3 3 4 7 9 11 13 14 16 17 19 20 21 22 22 21 21 21 20 20 19 17 16 15 13
19 18 18 17 15 14 13 13 12 11 11 11 9 9 8 7 6 5 4 3 3 4 6 8 10 12 14 16 17 19 20 21 22 22 22 22 22 22 21 20 18 16 15 13
17 17 17 16 14 14 13 13 12 11 11 10 10 9 8 7 6 5 4 3 2 3 5 7 9 11 13 15 17 19 20 21 22 22 23 22 22 22 22 21 19 17 15 13
17 17 17 16 15 14 13 13 12 11 10 10 9 8 8 7 6 5 4 2 2 3 4 6 9 11 13 15 16 18 20 21 22 23 23 23 23 23 22 21 20 18 16 14
16 16 15 15 14 13 13 12 11 11 10 9 8 8 8 8 6 5 4 2 1 2 4 6 8 10 12 14 16 17 19 21 22 23 23 23 23 23 23 22 21 19 18 15
15 15 14 14 14 13 13 12 11 10 9 8 9 8 8 8 7 6 4 3 2 2 4 6 8 10 11 13 15 17 19 20 22 23 24 24 23 23 23 23 21 20 19 17
14 13 14 14 13 12 12 11 10 11 10 9 8 8 8 8 7 6 5 4 2 2 3 5 7 9 11 13 14 16 18 20 21 22 23 24 24 23 23 22 22 21 20 18
12 12 11 12 12 12 11 10 11 11 11 10 8 8 9 9 8 7 6 4 3 2 3 5 6 8 10 12 14 16 18 19 21 21 22 23 24 24 24 23 22 21 20 19
10 11 11 11 10 10 10 10 11 11 11 10 9 8 9 9 8 7 6 5 4 3 3 5 6 8 9 11 13 15 17 19 20 21 22 23 24 24 24 24 23 22 20 19
8 9 11 10 10 10 10 11 11 11 10 10 9 8 10 10 9 8 7 6 5 4 4 5 6 8 9 11 13 15 16 18 19 20 21 22 23 23 24 24 24 23 21 20
7 8 10 10 10 10 11 11 12 11 11 11 10 8 10 10 10 9 8 7 6 5 5 6 7 8 9 11 12 14 16 17 18 20 21 21 22 23 23 23 23 22 22 21
6 7 9 10 11 11 12 12 12 13 13 11 10 10 11 11 11 10 9 8 7 6 6 7 7 8 9 11 12 13 15 16 17 19 20 21 21 22 22 22 22 22 21 21
8 9 10 11 12 12 12 13 13 13 12 12 11 11 12 12 11 11 10 9 8 8 7 7 8 8 9 11 12 13 14 16 17 18 19 20 21 21 21 21 21 21 21 20
10 10 11 11 13 13 13 13 13 12 12 12 12 12 13 13 12 11 11 10 9 9 8 8 8 9 9 10 12 13 14 15 16 17 18 19 20 21 21 21 20 20 20 20
12 13 13 13 14 14 13 13 14 13 12 12 12 12 13 13 13 12 12 11 10 10 9 9 9 9 10 11 12 13 14 15 16 17 18 18 19 20 20 20 20 20 20 20
13 14 14 14 14 15 13 14 14 13 13 13 13 13 14 14 14 13 13 12 11 11 11 10 10 10 10 11 12 13 14 15 16 17 17 18 19 19 19 19 19 19 19 19
15 16 16 16 16 14 13 14 15 14 13 14 14 14 14 15 15 14 14 13 13 12 12 12 12 12 12 12 13 13 14 15 16 17 17 18 18 19 19 19 18 18 18 18
16 17 17 17 16 15 13 15 15 15 14 15 15 15 15 16 16 16 15 15 14 14 14 13 13 13 13 13 13 14 15 16 17 17 18 18 18 19 19 18 18 18 18 18
18 18 19 18 17 15 14 15 16 16 15 16 16 16 16 17 17 17 17 16 16 16 15 15 15 15 14 14 15 15 16 17 17 18 18 18 19 19 19 19 19 18 19 18
19 19 20 20 19 17 16 17 17 17 17 17 18 18 18 18 18 18 18 18 17 17 17 16 16 16 16 16 16 16 17 17 18 18 18 19 19 19 19 19 19 19 19 19
21 21 21 21 20 19 19 20 20 20 20 20 20 20 20 20 20 20 20 19 19 19 18 18 18 18 18 18 18 18 18 18 19 19 19 20 20 20 20 20 20 20 20 19
24 24 24 23 21 22 22 22 22 23 23 22 22 22 22 22 22 22 22 21 21 21 20 20 20 20 20 20 19 20 20 20 20 20 20 21 21 21 21 21 21 21 21 20
26 27 27 26 25 25 25 25 25 25 25 25 24 24 24 24 24 24 24 24 23 23 22 22 22 22 22 22 21 21 22 22 22 22 22 22 22 22 22 22 22 22 22 22
28 30 30 29 29 30 28 28 29 28 27 27 27 26 25 25 25 25 25 25 25 25 24 24 24 24 24 23 23 23 23 23 23 23 23 23 23 23 23 24 24 24 24 24
Wind_Direction
224 225 227 229 232 236 241 248 257 263 266 269 272 272 271 270 272 284 300 315 336 354 3 5 5 7 6 6 6 6 4 3 1 357 353 349 346 343 338 334 328 322 317 306
220 220 220 223 228 233 239 247 257 260 262 265 265 264 263 262 265 278 295 314 342 359 7 9 11 11 10 9 9 8 7 6 5 2 359 355 352 349 346 342 337 331 324 314
218 216 217 221 225 232 240 248 252 253 255 258 257 255 253 253 257 270 287 310 338 2 9 12 13 14 14 14 12 10 9 8 7 5 3 0 358 356 354 351 346 341 335 325
211 211 214 218 223 229 236 246 249 251 251 251 250 245 243 242 248 260 274 296 333 358 7 13 16 17 17 16 14 12 11 10 8 7 5 3 1 360 358 356 353 349 344 337
207 208 211 216 222 228 237 243 247 248 248 249 247 244 238 235 240 246 258 278 320 356 11 16 17 17 16 15 14 12 11 10 10 8 6 4 3 2 1 0 358 354 350 344
200 205 208 212 220 228 234 239 244 243 246 247 244 240 234 233 231 235 243 261 315 0 14 16 14 14 16 15 13 11 11 11 10 9 7 6 6 5 5 4 3 359 355 350
195 200 206 212 217 224 230 237 241 240 244 246 244 239 235 230 225 224 228 248 307 358 11 12 12 14 15 14 12 12 11 10 10 9 10 9 8 7 8 8 7 6 3 359
194 199 204 211 215 224 231 236 241 242 241 245 245 242 232 228 225 224 229 245 283 342 2 9 12 13 13 12 11 11 10 9 9 10 10 10 9 9 10 10 10 11 10 7
193 198 203 210 218 226 229 236 243 246 248 250 248 241 233 230 227 224 230 244 270 320 350 4 10 10 10 10 10 9 8 8 9 9 9 10 10 10 10 10 11 11 11 10
192 196 203 210 223 231 236 241 246 249 253 253 248 241 232 229 228 226 231 244 265 303 335 352 358 2 4 5 6 6 6 7 8 8 8 9 10 11 11 11 11 11 11 11
199 203 208 217 228 240 245 249 252 253 255 255 246 236 231 230 229 228 233 243 259 287 315 335 345 352 357 360 1 2 3 5 6 7 7 8 9 11 12 12 12 11 11 11
203 210 213 223 232 239 246 251 253 253 255 256 250 237 232 229 226 230 236 242 255 275 299 322 334 343 348 352 356 358 0 2 4 5 6 7 8 9 11 12 13 14 14 13
203 214 221 227 235 242 248 252 253 254 254 255 251 240 234 230 228 235 240 245 253 267 288 309 324 334 341 346 350 354 357 360 2 3 5 6 6 8 10 12 13 14 14 14
223 231 232 236 242 248 252 254 254 256 258 254 246 238 234 233 232 237 241 245 253 265 283 301 316 327 334 340 344 348 352 356 359 1 2 4 4 6 8 9 11 12 13 14
246 243 242 243 249 252 253 254 255 256 256 254 244 239 234 233 234 237 241 245 253 264 280 295 309 320 328 333 338 343 347 351 354 356 358 0 2 3 5 6 8 10 12 13
250 251 252 252 252 253 254 256 258 256 255 252 244 238 236 233 236 238 240 245 253 262 275 289 301 311 320 327 333 338 342 346 349 351 354 356 358 359 1 2 5 7 9 11
257 258 257 257 257 256 255 257 257 257 254 251 245 237 235 234 236 238 241 246 253 261 272 284 294 303 312 320 326 332 337 340 343 346 349 351 353 355 357 359 1 3 5 7
263 262 262 261 260 260 260 257 257 256 255 253 249 242 238 237 238 240 243 248 254 262 271 281 288 296 305 312 319 325 330 334 338 341 344 346 348 351 353 355 357 359 1 3
266 265 264 264 264 265 260 259 258 256 254 253 249 244 241 241 242 243 245 249 255 262 270 278 285 292 299 306 312 318 324 328 332 336 339 341 343 346 349 350 352 354 355 357
265 265 264 265 266 265 261 259 257 257 256 252 251 249 245 245 245 246 249 252 256 261 268 275 281 287 293 300 306 312 317 322 326 330 333 337 338 340 342 344 345 347 348 350
266 265 264 264 265 265 262 258 256 256 254 253 254 254 251 248 248 249 251 254 257 261 267 273 278 283 288 294 300 306 312 316 321 324 327 331 333 334 335 337 338 339 341 343
266 265 263 262 262 262 258 257 255 254 253 254 254 254 253 251 251 251 253 256 259 263 267 272 276 280 285 290 295 301 307 311 315 319 321 324 326 329 330 330 332 333 335 336
263 264 263 261 261 259 258 256 255 254 254 254 254 255 253 252 252 253 255 258 261 264 267 271 274 278 282 287 291 297 302 307 310 313 316 318 320 323 324 325 326 327 329 331
261 261 261 260 258 257 257 256 255 254 254 253 254 254 254 254 254 254 256 258 261 264 267 270 273 277 280 284 288 292 297 301 305 308 310 313 315 317 319 320 322 323 324 325
261 261 260 259 257 255 254 255 256 255 255 255 254 254 254 255 256 256 257 259 261 264 267 269 272 275 278 281 285 289 293 297 301 303 306 308 310 313 314 315 317 319 320 320
259 259 259 258 256 255 253 254 255 256 256 256 256 255 255 256 256 256 257 259 261 263 266 268 271 273 276 279 282 286 290 294 297 299 300 302 305 307 309 310 311 313 314 315
Height
5829 5835 5839 5843 5846 5849 5850 5852 5853 5854 5854 5855 5855 5855 5854 5854 5854 5853 5852 5851 5850 5848 5846 5844 5841 5839 5836 5832 5829 5825 5821 5817 5812 5808 5804 5800 5796 5792 5788 5785 5781 5778 5775 5773
5828 5832 5837 5840 5843 5846 5848 5850 5851 5852 5852 5852 5853 5853 5852 5852 5852 5852 5851 5850 5848 5847 5845 5843 5841 5838 5835 5832 5828 5824 5820 5816 5812 5807 5803 5799 5795 5791 5786 5782 5779 5775 5772 5770
5826 5831 5834 5838 5841 5844 5846 5848 5849 5850 5850 5850 5851 5852 5851 5851 5850 5850 5849 5849 5847 5846 5844 5842 5840 5837 5834 5831 5828 5824 5820 5816 5811 5807 5802 5798 5794 5789 5785 5781 5777 5773 5770 5767
5823 5828 5832 5836 5839 5841 5844 5845 5846 5847 5848 5849 5850 5850 5850 5849 5849 5849 5848 5848 5846 5845 5843 5841 5839 5837 5834 5831 5827 5824 5820 5816 5811 5807 5802 5798 5793 5789 5784 5779 5775 5772 5768 5765
5823 5827 5830 5834 5837 5840 5842 5843 5844 5845 5846 5847 5847 5848 5849 5848 5848 5848 5847 5847 5846 5844 5843 5841 5839 5836 5834 5831 5827 5824 5820 5816 5812 5807 5802 5798 5793 5788 5784 5779 5774 5770 5767 5764
5821 5825 5829 5832 5835 5837 5839 5841 5842 5843 5844 5845 5845 5846 5847 5846 5846 5847 5846 5846 5845 5844 5842 5840 5838 5836 5834 5831 5828 5824 5820 5816 5812 5808 5803 5798 5793 5788 5784 5779 5774 5770 5766 5763
5820 5824 5828 5831 5833 5836 5838 5840 5841 5841 5842 5843 5843 5844 5845 5845 5845 5845 5845 5845 5844 5843 5841 5840 5838 5836 5833 5831 5828 5824 5821 5817 5813 5808 5803 5799 5794 5789 5784 5779 5774 5770 5766 5762
5820 5824 5827 5829 5832 5834 5836 5838 5840 5840 5840 5841 5841 5842 5844 5843 5843 5844 5844 5843 5843 5842 5841 5839 5838 5836 5833 5831 5828 5824 5821 5817 5813 5809 5804 5799 5795 5790 5785 5780 5775 5771 5767 5763
5820 5823 5826 5828 5830 5833 5834 5835 5837 5838 5838 5839 5839 5841 5841 5841 5842 5842 5842 5842 5842 5841 5840 5839 5837 5835 5833 5830 5828 5825 5821 5818 5814 5809 5805 5800 5796 5791 5786 5781 5776 5772 5768 5764
5820 5823 5825 5827 5829 5831 5833 5833 5834 5835 5836 5837 5838 5838 5840 5840 5840 5841 5841 5841 5840 5840 5839 5838 5836 5835 5832 5830 5828 5825 5821 5818 5814 5810 5806 5801 5796 5792 5787 5782 5777 5773 5769 5765
5820 5823 5825 5827 5828 5830 5831 5832 5832 5833 5834 5835 5835 5839 5837 5838 5838 5839 5839 5839 5839 5839 5838 5837 5835 5834 5832 5830 5827 5824 5821 5818 5814 5810 5806 5802 5797 5793 5788 5783 5778 5774 5769 5765
5820 5822 5824 5826 5827 5828 5829 5830 5831 5832 5832 5832 5833 5838 5835 5836 5836 5837 5837 5838 5838 5837 5837 5836 5834 5833 5831 5829 5827 5824 5821 5818 5815 5811 5807 5802 5798 5794 5789 5784 5780 5775 5771 5767
5820 5822 5823 5825 5827 5827 5827 5828 5828 5829 5830 5830 5831 5835 5833 5833 5834 5835 5835 5836 5836 5836 5835 5834 5833 5832 5830 5828 5826 5823 5821 5818 5814 5811 5807 5803 5799 5794 5790 5785 5781 5777 5772 5768
5820 5821 5823 5824 5824 5824 5825 5826 5826 5827 5827 5828 5829 5830 5831 5831 5832 5832 5833 5833 5834 5834 5833 5833 5832 5830 5829 5827 5825 5823 5820 5817 5814 5811 5807 5803 5799 5795 5791 5786 5782 5778 5774 5770
5819 5820 5820 5821 5821 5822 5823 5823 5823 5824 5825 5825 5826 5827 5828 5828 5829 5830 5830 5831 5831 5831 5831 5831 5830 5828 5827 5825 5824 5821 5819 5816 5813 5810 5807 5803 5799 5795 5791 5787 5783 5779 5775 5771
5817 5818 5818 5819 5819 5819 5820 5821 5821 5821 5822 5822 5823 5824 5824 5825 5826 5827 5828 5828 5829 5829 5829 5828 5827 5826 5825 5824 5822 5820 5818 5815 5812 5809 5806 5803 5799 5795 5791 5787 5784 5780 5776 5772
5815 5816 5816 5816 5816 5816 5818 5818 5818 5818 5819 5819 5820 5822 5821 5822 5823 5824 5825 5825 5826 5826 5826 5826 5825 5824 5823 5822 5820 5818 5816 5813 5811 5808 5805 5802 5798 5795 5791 5787 5784 5780 5776 5773
5812 5812 5813 5813 5814 5814 5817 5815 5815 5815 5816 5816 5817 5818 5818 5819 5820 5821 5822 5822 5823 5823 5823 5823 5822 5821 5820 5819 5818 5816 5814 5812 5809 5806 5803 5800 5797 5794 5790 5787 5783 5780 5776 5773
5809 5809 5809 5809 5809 5810 5812 5811 5811 5812 5813 5813 5813 5814 5815 5816 5817 5818 5818 5819 5820 5820 5820 5819 5819 5818 5817 5816 5815 5813 5811 5809 5807 5804 5801 5798 5795 5792 5789 5786 5782 5779 5776 5772
5805 5805 5806 5805 5805 5806 5809 5807 5807 5809 5809 5809 5809 5810 5811 5812 5814 5815 5815 5815 5816 5816 5816 5816 5815 5815 5814 5813 5811 5810 5808 5806 5804 5801 5799 5796 5793 5790 5787 5784 5781 5778 5775 5772
5801 5801 5801 5801 5801 5802 5804 5803 5804 5806 5806 5806 5806 5806 5807 5808 5810 5810 5810 5811 5811 5812 5812 5812 5811 5811 5810 5809 5808 5806 5805 5803 5801 5798 5796 5793 5790 5787 5784 5781 5779 5776 5773 5770
5796 5796 5796 5796 5797 5800 5799 5798 5800 5800 5800 5800 5801 5802 5803 5804 5804 5805 5806 5806 5807 5807 5807 5807 5807 5806 5805 5804 5803 5802 5801 5799 5797 5794 5792 5790 5787 5784 5781 5779 5776 5773 5770 5767
5790 5791 5791 5792 5794 5793 5793 5793 5794 5794 5795 5795 5796 5797 5798 5798 5799 5800 5801 5801 5802 5802 5802 5802 5802 5801 5800 5800 5799 5797 5796 5794 5792 5790 5788 5786 5783 5780 5778 5775 5772 5770 5767 5764
5784 5784 5784 5785 5786 5786 5786 5787 5787 5788 5789 5789 5790 5791 5792 5793 5793 5794 5795 5796 5796 5796 5796 5796 5796 5795 5795 5794 5793 5792 5791 5789 5787 5785 5783 5781 5778 5776 5773 5771 5768 5766 5763 5760
5777 5776 5776 5777 5779 5779 5779 5780 5780 5781 5782 5783 5784 5784 5785 5786 5787 5788 5788 5789 5789 5790 5790 5790 5790 5789 5789 5788 5787 5786 5785 5783 5782 5780 5778 5776 5773 5771 5769 5766 5764 5761 5759 5756
5769 5768 5768 5769 5770 5770 5772 5772 5773 5774 5775 5775 5776 5777 5778 5779 5780 5780 5781 5782 5782 5783 5783 5783 5782 5782 5782 5781 5781 5780 5778 5777 5776 5774 5772 5770 5768 5766 5763 5761 5758 5756 5753 5751